Home   Weather   Höxter   Past weeks

Flag for Germany Past Weather in Höxter, North Rhine-Westphalia, Germany — Yesterday and Last 2 Weeks

Now
45 °F

Scattered showers. Scattered clouds.


Feels Like: 38 °F
Forecast: 33 / 52 °F
Wind: 15 mph from Northwest

Location: Kassel / Calden

Current Time: Apr 25, 2017 at 6:44:18 pm

Latest Report: Apr 25, 2017 at 6:20 pm


Visibility: N/A

Pressure: 29.77 "Hg

Humidity: 57%

Dew Point: 30 °F

Location of HöxterLocation

Past Weather in Höxter — Graph

°F

Höxter Temperature Yesterday

Maximum temperature yesterday: 57 °F (at 4:20 pm)
Minimum temperature yesterday: 34 °F (at 7:20 am)
Average temperature yesterday: 50 °F

High & Low Weather Summary for the Past Weeks

 TemperatureHumidityPressure
High57 °F (Apr 12, 1:20 pm)100% (Apr 13, 3:20 am)30.60 "Hg (Apr 13, 3:20 am)
Low25 °F (Apr 20, 5:20 am)40% (Apr 20, 2:50 pm)29.65 "Hg (Apr 25, 6:50 am)
Average45 °F67%30.13 "Hg
* Reported Apr 10 5:20 pm — Apr 25 5:50 pm, Höxter, Weather by CustomWeather, © 2017

Note: Actual official high and low records may vary slightly from our data, if they occured in-between our weather recording intervals... More about our weather records

Advertising

Höxter Weather History for the Previous 24 Hours

Scroll right to see more
 ConditionsComfort  
Time TempWeatherWind HumidityBarometerVisibility
5:50 pm
Tue, Apr 25
45 °FScattered showers. Partly sunny.15 mph53%29.77 "HgN/A
5:20 pm45 °FSunny.17 mph57%29.74 "Hg10 mi
4:50 pm45 °FScattered clouds.20 mph61%29.74 "HgN/A
4:20 pm48 °FBroken clouds.16 mph43%29.74 "HgN/A
3:50 pm48 °FBroken clouds.18 mph43%29.74 "HgN/A
3:20 pm46 °FBroken clouds.18 mph43%29.74 "HgN/A
2:50 pm48 °FBroken clouds.15 mph46%29.74 "HgN/A
2:20 pm46 °FBroken clouds.15 mph46%29.71 "HgN/A
1:50 pm48 °FBroken clouds.16 mph50%29.71 "HgN/A
1:20 pm48 °FScattered clouds.13 mph50%29.71 "HgN/A
12:50 pm45 °FBroken clouds.14 mph66%29.71 "HgN/A
12:20 pm43 °FBroken clouds.14 mph71%29.71 "HgN/A
11:50 am41 °FBroken clouds.16 mph70%29.71 "HgN/A
11:20 am41 °FLight rain. Broken clouds.21 mph70%29.71 "HgN/A
10:50 am43 °FBroken clouds.13 mph76%29.68 "Hg6 mi
10:20 am41 °FBroken clouds.7 mph87%29.68 "Hg6 mi
9:50 am41 °FMore clouds than sun.9 mph87%29.68 "Hg6 mi
9:20 am41 °FCloudy.9 mph87%29.68 "Hg6 mi
8:50 am39 °FLight rain. Broken clouds.7 mph100%29.68 "Hg5 mi
8:20 am39 °FLight rain. Mostly cloudy.9 mph93%29.68 "Hg5 mi
7:50 am39 °FLight rain. Partly sunny.10 mph100%29.68 "Hg5 mi
7:20 am39 °FLight rain. Partly sunny.12 mph100%29.65 "Hg5 mi
6:50 am39 °FLight rain. Partly sunny.15 mph100%29.65 "Hg5 mi
2:20 am48 °FPassing clouds.6 mph58%29.68 "HgN/A
1:50 am50 °FClear.6 mph54%29.68 "Hg10 mi
1:20 am50 °FClear.6 mph54%29.68 "Hg10 mi
12:50 am50 °FClear.6 mph54%29.71 "Hg10 mi
12:20 am50 °FClear.7 mph54%29.71 "Hg10 mi
11:50 pm
Mon, Apr 24
50 °FClear.6 mph54%29.71 "Hg10 mi
11:20 pm50 °FClear.6 mph54%29.74 "Hg10 mi
10:50 pm50 °FClear.6 mph54%29.74 "Hg10 mi
10:20 pm52 °FClear.7 mph50%29.77 "Hg10 mi
9:50 pm50 °FClear.7 mph54%29.77 "Hg10 mi
9:20 pm50 °FClear.5 mph58%29.77 "Hg10 mi
8:50 pm48 °FClear.5 mph62%29.80 "Hg10 mi
8:20 pm52 °FSunny.6 mph50%29.80 "Hg10 mi
7:50 pm54 °FSunny.8 mph47%29.80 "Hg10 mi
7:20 pm54 °FSunny.10 mph47%29.83 "Hg10 mi
6:50 pm55 °FSunny.8 mph44%29.83 "Hg10 mi
6:20 pm55 °FPassing clouds.10 mph47%29.83 "HgN/A
Weather by CustomWeather, © 2017

See weather overviewHow to use our weather pages